Terug naar catalogus

STARLINK-31654

ActiefCommunicatieVLEO
NORAD 59858·PAYLOAD·🇺🇸 United States

Gelanceerd May 24, 2024 vanaf Cape Canaveral Space Force Station

Loading…

Volgende Passages (komende 24 uur)

TLE

VersSource: CelesTrak SupGP

Epoch: Sep 14, 2026, 21:30 UTC

1 59858C 24098A   26257.89631944  .00009682  00000+0  35065-3 0  2577
2 59858  43.0028 282.0333 0001739 273.4815 269.1575 15.27575920    14

Volg STARLINK-31654 in realtime met AllMySat

Download on the App Store